User: anonymous   Login
Location: Fort Wayne
(41.1310°N, 85.1290°W)
Time: 15:04:59
(UTC-05:00)
Language:

CZ-2C R/B - Orbit

View from above orbital plane
View from above orbital plane
View from above satellite
View from above satellite

Ground track
Ground track

The orbit data is extracted from the following two-line orbital elements,

1 36089U 09061B   18050.54574870  .00000078  00000-0  30858-4 0  9999
2 36089  98.0656  46.5089 0082172   4.8868 104.1075 14.49711424437546
Epoch (UTC): 19 February 2018 13:05:52
Eccentricity: 0.0082172
inclination: 98.0656°
perigee height: 668 km
apogee height: 785 km
right ascension of ascending node: 46.5089°
argument of perigee: 4.8868°
revolutions per day: 14.49711424
mean anomaly at epoch: 104.1075°
orbit number at epoch: 43754

The dashed part of the orbit path shows where the satellite is in the earth's shadow,  

DLR